New York JFK, NY

8:35 AM EDT on April 25, 2017 (GMT -0400)
Kennedy International

Weather History for KJFK - November, 2012

Change the Weather History Date:

Thursday, November 8, 2012

  Actual Average Record
Temperature  
Mean Temperature 39 °F 50 °F  
Max Temperature 45 °F 57 °F 71 °F (1975)
Min Temperature 32 °F 43 °F 28 °F (1976)
Degree Days  
Heating Degree Days 26 15  
Month to date heating degree days 173 113  
Since 1 July heating degree days 377 412  
Cooling Degree Days 0 0  
Month to date cooling degree days 0 0  
Year to date cooling degree days 1229 1005  
Moisture  
Dew Point 26 °F    
Average Humidity 69    
Maximum Humidity 92    
Minimum Humidity 45    
Precipitation  
Precipitation 0.04 in 0.10 in 3.92 in (1972)
Month to date precipitation 1.01 0.84  
Year to date precipitation 34.36 36.92  
Snow  
Snow 0.30 in 0.00 in 0.30 in (2012)
Month to date snowfall 4.3 0.0  
Since 1 July snowfall 4.3 0.0  
Snow Depth 4.00 in    
Sea Level Pressure  
Sea Level Pressure 29.79 in    
Wind  
Wind Speed 17 mph (NNW)    
Max Wind Speed 30 mph    
Max Gust Speed 38 mph    
Visibility 9 miles    
Events Snow    
T = Trace of Precipitation, MM = Missing Value Source: NWS Daily Summary

Daily Weather History Graph

Daily Weather History Graph

Search for Another Location

Airport or City:

Trip Planner

Search our weather history database for the weather conditions in past years. The results will help you decide how hot, cold, wet, or windy it might be!

Date:

Astronomy

Nov. 08, 2012 Rise Set
Actual Time 6:34 AM EST 4:43 PM EST
Civil Twilight 6:05 AM EST 5:12 PM EST
Nautical Twilight 5:32 AM EST 5:44 PM EST
Astronomical Twilight 5:00 AM EST 6:16 PM EST
Moon 12:24 AM EST (11/8) 1:24 PM EST (11/8)
Length of Visible Light 11h 06m
Length of Day
10h 09m
Waning Crescent, 33% of the Moon is Illuminated
Nov 8
Waning Crescent
Nov 13
New
Nov 20
First Quarter
Nov 28
Full
Dec 6
Last Quarter

Hourly Weather History & Observations

Time (EST) Temp. Windchill Dew Point Humidity Pressure Visibility Wind Dir Wind Speed Gust Speed Precip Events Conditions
12:44 AM 32.0 °F 18.6 °F 30.2 °F 93% 29.74 in 1.2 mi North 25.3 mph 35.7 mph 0.01 in Snow Light Snow
12:51 AM 32.0 °F 18.4 °F 30.9 °F 96% 29.73 in 1.5 mi North 26.5 mph 35.7 mph 0.02 in Snow Light Snow
1:39 AM 32.0 °F 18.9 °F 30.2 °F 93% 29.74 in 5.0 mi North 24.2 mph 31.1 mph 0.01 in Snow Light Snow
1:51 AM 33.1 °F 21.2 °F 30.9 °F 92% 29.74 in 6.0 mi North 20.7 mph 29.9 mph 0.02 in Snow Light Snow
2:51 AM 35.1 °F 24.5 °F 28.9 °F 78% 29.75 in 10.0 mi North 18.4 mph 26.5 mph 0.00 in   Overcast
3:51 AM 35.1 °F 23.0 °F 27.0 °F 72% 29.77 in 7.0 mi North 24.2 mph 31.1 mph 0.00 in Snow Light Snow
4:51 AM 36.0 °F 26.0 °F 25.0 °F 64% 29.77 in 9.0 mi North 17.3 mph 26.5 mph 0.00 in Snow Light Snow
5:51 AM 36.0 °F 26.0 °F 24.1 °F 62% 29.77 in 9.0 mi NNW 17.3 mph - 0.00 in Snow Light Snow
6:51 AM 37.0 °F 27.4 °F 24.1 °F 59% 29.78 in 10.0 mi North 17.3 mph 25.3 mph 0.00 in   Mostly Cloudy
7:51 AM 37.0 °F 29.8 °F 25.0 °F 62% 29.79 in 10.0 mi NNW 10.4 mph - N/A   Mostly Cloudy
8:51 AM 37.9 °F 30.5 °F 25.0 °F 60% 29.79 in 10.0 mi NNW 11.5 mph - N/A   Mostly Cloudy
9:51 AM 39.0 °F 29.6 °F 23.0 °F 53% 29.78 in 10.0 mi NW 18.4 mph 27.6 mph N/A   Mostly Cloudy
10:51 AM 39.0 °F 29.3 °F 23.0 °F 53% 29.77 in 10.0 mi NNW 19.6 mph - N/A   Mostly Cloudy
11:51 AM 41.0 °F 33.5 °F 24.1 °F 51% 29.76 in 10.0 mi NW 13.8 mph - N/A   Mostly Cloudy
12:51 PM 42.1 °F 34.9 °F 25.0 °F 51% 29.74 in 10.0 mi NNW 13.8 mph 28.8 mph N/A   Mostly Cloudy
1:51 PM 44.1 °F 36.8 °F 25.0 °F 47% 29.74 in 10.0 mi North 16.1 mph - N/A   Mostly Cloudy
2:51 PM 43.0 °F 37.7 °F 28.0 °F 56% 29.75 in 10.0 mi North 9.2 mph - N/A   Mostly Cloudy
3:51 PM 44.1 °F 38.1 °F 28.0 °F 53% 29.77 in 10.0 mi North 11.5 mph - N/A   Mostly Cloudy
4:51 PM 44.1 °F 36.2 °F 24.1 °F 45% 29.79 in 10.0 mi NNW 18.4 mph 24.2 mph N/A   Mostly Cloudy
5:51 PM 43.0 °F 34.8 °F 23.0 °F 45% 29.82 in 10.0 mi NW 18.4 mph 26.5 mph N/A   Mostly Cloudy
6:51 PM 42.1 °F 33.1 °F 23.0 °F 47% 29.84 in 10.0 mi NW 20.7 mph 28.8 mph N/A   Mostly Cloudy
7:51 PM 42.1 °F 33.9 °F 23.0 °F 47% 29.86 in 10.0 mi NNW 17.3 mph - N/A   Mostly Cloudy
8:51 PM 41.0 °F 31.9 °F 23.0 °F 49% 29.88 in 10.0 mi NNW 19.6 mph 26.5 mph N/A   Mostly Cloudy
9:51 PM 39.9 °F 30.2 °F 24.1 °F 53% 29.90 in 10.0 mi NNW 20.7 mph 26.5 mph N/A   Mostly Cloudy
10:51 PM 39.0 °F 29.6 °F 24.1 °F 55% 29.91 in 10.0 mi NNW 18.4 mph 28.8 mph N/A   Mostly Cloudy
11:51 PM 37.9 °F 28.9 °F 25.0 °F 60% 29.92 in 10.0 mi NNW 16.1 mph 23.0 mph N/A   Partly Cloudy